Location: Newark
(36.1358°N, 115.1208°W)
Time: 03:41:30
(UTC+00:00)

ISS - Pass Details

Date: 17 January 2021
Orbit: 417 x 422 km, 51.6° (Epoch: 07 March)

Event Time Altitude Azimuth Distance (km) Brightness Sun altitude
Rises 02:53:12 0° 230° (SW) 2,358 1.0 -24.4°
Reaches altitude 10° 02:55:17 10° 231° (SW) 1,498 -0.2 -24.8°
Enters shadow 02:57:11 31° 235° (SW) 759 -2.0 -25.2°
